Location: Dackenheim
(49.5215°N, 8.1854°E)
Time: 03:26:21
(UTC+00:00)

UWE-3 - Pass Details

Date: 19 March 2026
Orbit: 543 x 612 km, 97.9° (Epoch: 12 April)

Event Time Altitude Azimuth Distance (km) Brightness Sun altitude
Rises 02:42:23 0° 11° (N) 2,884 ? -26.9°
Reaches altitude 10° 02:44:36 10° 8° (N) 1,969 ? -26.6°
Enters shadow 02:47:30 40° 350° (N) 899 ? -26.2°
